Regional Weather Roundup
Issued by NWS Wakefield, VA

Home | Current Version | Previous Version | Graphics & Text | Print | Product List | Glossary On
Versions: 1 2 3 4 5 6 7 8 9 10 11 12 13 14 15 16 17 18 19 20 21 22 23 24 25 26
000
ASUS41 KAKQ 171916
RWRAKQ

REGIONAL WEATHER ROUNDUP
NATIONAL WEATHER SERVICE WAKEFIELD VA
200 PM EST SAT FEB 17 2018

Note: "fair" indicates few or no clouds below 12,000 feet with no
significant weather and/or obstructions to visibility. * = Denotes
station may not report precipitation (e.g., rain,snow,etc.),
thunder or fog.

VAZ042-051-052>054-056-172000-
NORTHERN VIRGINIA

CITY           SKY/WX    TMP DP  RH WIND       PRES   REMARKS
WASH NATIONAL  FLURRIES  41  26  55 SE8       30.26R
DULLES         LGTSLEET  39  27  62 S8        30.25R
FORT BELVOIR   LGT RAIN  41  26  56 SE5       30.24S
QUANTICO       LGT RAIN  40  30  67 SE9       30.25F
FREDERICKSBRG* DRIZZLE   43  31  62 SE6       30.21F
STAFFORD*      LGT RAIN  40  30  68 E8        30.27F
WARRENTON      FLURRIES  40  24  52 CALM      30.23S
CULPEPER*      FLURRIES  39  26  60 W3        30.24F
MANASSAS*      LGT RAIN  40  27  59 CALM      30.26S
LEESBURG*      CLOUDY    41  28  60 SW3       30.28R
WINCHESTER     CLOUDY    36  23  60 S6        30.26R
FRONT ROYAL*   CLOUDY    36  27  69 CALM      30.23R
LURAY*         LGT SNOW  36  28  75 W6        30.22R
$$

VAZ048-049-060>072-079>083-172000-
CENTRAL AND SOUTH CENTRAL VIRGINIA

CITY           SKY/WX    TMP DP  RH WIND       PRES   REMARKS
RICHMOND       CLOUDY    43  31  62 SE10      30.22F
CHESTERFIELD*  CLOUDY    42  29  59 SE8       30.21F
PETERSBURG*    CLOUDY    43  30  61 SE6       30.21F
HANOVER        CLOUDY    43  30  60 VRB6      30.22F
TAPPAHANNOCK*  CLOUDY    43  32  65 E9        30.24S
QUINTON*       CLOUDY    42  32  67 MISG      30.22F
CHARLOTTSVILLE LGT RAIN  39  25  57 CALM      30.22F
GORDONSVILLE*  CLOUDY    38  26  60 CALM      30.22R
ORANGE*        CLOUDY    37  27  65 CALM      30.23R
LOUISA*        CLOUDY    40  26  57 CALM      30.25F
BUMPASS*       CLOUDY    41  27  57 SE5       30.21F
FARMVILLE*     CLOUDY    41  31  68 CALM      30.20S
CREWE*         CLOUDY    40  32  72 E7        30.18F
FORT PICKETT*  CLOUDY    41  33  73 E5        30.18F
CHASE CITY*    CLOUDY    40  31  70 E5        30.17F
CLARKSVILLE*   CLOUDY    41  32  70 E9        30.16F
SOUTH HILL*    CLOUDY    41  35  77 SE3       30.23F
LAWRENCEVILLE* CLOUDY    43  33  69 CALM      30.18F
EMPORIA*       CLOUDY    45  34  65 E3        30.21F
$$

VAZ088>098-172000-
SOUTHEAST VIRGINIA

CITY           SKY/WX    TMP DP  RH WIND       PRES   REMARKS
NORFOLK        CLOUDY    45  33  63 E9        30.21F
VIRGINIA BEACH CLOUDY    45  34  65 E8        30.20F
NORFOLK NAVAL  CLOUDY    44  32  62 E8        30.23F
WEST POINT*    CLOUDY    43  32  65 SE12G17   30.24F
SALUDA*        CLOUDY    41  31  66 SE9       30.24F
NEWPORT NEWS   CLOUDY    43  31  62 E8        30.23F
LANGLEY AFB    CLOUDY    54  41  62 NE10      30.00F
FORT EUSTIS    CLOUDY    43  30  59 E6        30.20F
WILLIAMSBURG*  CLOUDY    45  34  65 CALM      30.22F
HR EXEC AP*    CLOUDY    46  33  60 E7        30.22F
FRANKLIN*      CLOUDY    46  36  66 E9        30.21F
US460-WAKEFLD  CLOUDY    44  36  73 VRB7      30.20F
$$

VAZ020-022-025-037-045-172000-
WEST CENTRAL AND SOUTHWEST VIRGINIA

CITY           SKY/WX    TMP DP  RH WIND       PRES   REMARKS
STAUNTON*      FLURRIES  34  25  70 W3        30.23R
WAYNESBORO*    CLOUDY    32  28  83 CALM      30.18R
HOT SPRINGS VA MIX PCPN  29  29 100 CALM      30.04F VSB 1/4
LYNCHBURG      LGT RAIN  36  30  79 N3        30.17F
DANVILLE       CLOUDY    40  33  76 NE5       30.16F
SOUTH BOSTON*  CLOUDY    41  32  71 E6        30.17F
MARTINSVILLE   DRIZZLE   37  35  90 E3        30.17F
ROANOKE        LGT RAIN  35  32  88 E8        30.15F FOG
BLACKSBURG     MIX PCPN  34  33  97 E7        30.11F
DUBLIN*        MIX PCPN  36  35  95 E7        30.08F
MARION*        CLOUDY    40  37  86 E8        30.02F
HILLSVILLE*    MIX PCPN  35  34  96 SE5       30.03F
RICHLANDS*     MIX PCPN  43  40  89 NW7       29.93F
WISE*          RAIN      41  41 100 NW8       30.02R
ABINGDON*      CLOUDY    51  46  84 E7        29.92F
$$

MDZ021>025-VAZ099-100-172000-
SOUTHERN MARYLAND AND THE DELMARVA PENINSULA

CITY           SKY/WX    TMP DP  RH WIND       PRES   REMARKS
PATUXENT RIVER CLOUDY    39  30  70 S5        30.26F
BAY BRIDGE APT PTSUNNY   41  27  56 SE5       30.27R
LEONARDTOWN    CLOUDY    39  28  65 SE7       30.26S
DOVER          CLOUDY    38  29  70 E9        30.28F
GEORGETOWN     FAIR      41  28  60 SE7       30.27F
EASTON         CLOUDY    41  25  52 SE6       30.30S
CAMBRIDGE      PTSUNNY   43  27  52 SE5       30.26S
SALISBURY      PTSUNNY   42  27  55 S7        30.25F
OCEAN CITY     FAIR      40  32  73 E6        30.26F
WALLOPS ISLAND CLOUDY    43  32  65 E9        30.24F
ACCOMACK*      CLOUDY    42  32  67 E7        30.24F
$$

NCZ012>017-030>032-172000-
NORTH CENTRAL AND EASTERN NORTH CAROLINA

CITY           SKY/WX    TMP DP  RH WIND       PRES   REMARKS
ROANOKE RAPIDS DRIZZLE   45  39  81 E6        30.18F
RALEIGH        DRIZZLE   43  39  86 SE6       30.17F FOG
ELIZABETH CITY LGT RAIN  46  42  86 E12       30.19F FOG
AHOSKIE*       DRIZZLE   45  39  80 NE6       30.19F
EDENTON*       CLOUDY    47  41  80 E8        30.21F HAZE
CURRITUCK*     CLOUDY    46  36  69 E6        30.22F
KILL DEVIL HLS DRIZZLE   46  45  96 NE8       30.18F
MANTEO         CLOUDY    46  42  85 NE9       30.20F
CAPE HATTERAS  CLOUDY    51  47  86 NE12G18   30.15F
TARBORO*       NOT AVBL
GOLDSBORO      CLOUDY    49  40  71 NE9       30.15F
WASHINGTON     LGT RAIN  47  43  87 E7        30.18F
GREENVILLE     PTSUNNY   48  39  71 E8        30.19F
NEW BERN       CLOUDY    50  43  77 E8        30.17F
WILMINGTON     CLOUDY    52  46  80 E13       30.15F
$$

VAZ048-172000-
ELSEWHERE

CITY           SKY/WX    TMP DP  RH WIND       PRES   REMARKS
HARRISBURG PA  PTSUNNY   38  23  55 S6        30.25F
BALTIMORE      CLOUDY    39  26  59 SE8       30.26R
ANNAPOLIS      CLOUDY    41  29  62 E3        30.27S
ANDREWS AFB    LGTSLEET  39  27  60 E8        30.23S
PHILADELPHIA   CLOUDY    41  23  48 SE10      30.28F
HENDERSON NC   CLOUDY    41  32  72 E6        30.17F
GREENSBORO     CLOUDY    43  35  73 E8        30.12F
ROCKY MOUNT    CLOUDY    47  37  68 NE6       30.16F
$$

VAZ100-172000-
MARINE

STATION/POSITION TIME  TEMP    WIND        PRES    WAVE   SWELL
                       AIR SEA DIR/SP/G            HT/PER HT/PER
                 (UTC) (F)     (DEG/KT/KT) (MB)    (FT/S) (FT/S)
BRANDYWINE LGT   1842   37     150/  8/  9 1025.0F
CAPE MAY NJ      1836   39 40  100/  9/ 11 1024.4F
LEWES DE         1842   37 41  110/  8/ 10 1024.5F
15NM E FENWICK I 1850   40 42   30/  4/  6 1024.9F   3/ 5   2/ 5
OCEAN-CITY-INLET 1842   39 40   70/  6/  8 1024.9F
WACHAPREAGUE VA  1842   42 49   80/  7/ 12 1024.2F
THOMAS POINT MD  1900   38 38     CALM       N/A
GOOSES REEF MD   1900   38 39  190/  8/ 10 1024.8    1/ 2
COVE POINT MD    1842   38     180/  6/  8 1024.9F
SOLOMONS ISLAND  1842   39 40  130/  5/  7 1024.2F
BISHOPS HEAD MD  1842   42 45  140/ 12/ 12 1024.0F
POTOMAC MD       1900   39 39  300/  6/  8 1023.6    1/ 2
CAMBRIDGE MD     1842   42 43              1025.3F
LEWISETTA VA     1842   41 43  140/  9/ 11 1023.6F
RAPPAHANNOCK LGT 1842          100/ 10/ 13 1024.5F
STINGRAY PT      1900   40 42  150/ 10/ 12 1024.8    1/ 2
YORK RVR RNG VA  1842   41     100/ 10/ 11 1024.3F
YORKTOWN VA      1842   42 44  100/ 12/ 13 1023.3F
DOMINION TERM VA 1842   43     360/  2/  4 1023.5F
KIPTOPEKE VA     1842      43   90/  9/ 13   N/A
CAPE HENRY VA    1842   42      70/ 12/ 13   N/A
S CRANEY ISL VA  1842   45     190/  2/  4 1023.0F
CAPE HENRY BUOY  1900      44                N/A     4/ 7
1ST LANDING BUOY 1900   41 43  100/ 10/ 14 1023.2    2/ 3
CAPE CHARLES BUO 1851      43                N/A     4/ 7
64NM E OF VA BCH 1850   50 50   70/ 12/ 16 1023.0F   6/ 7   3/ 7
DUCK PIER NC     1842   45 44   40/ 10/ 11 1022.4F
44100 DUCK FRF   1845      45                N/A     5/ 7   2/11
44056 DUCK FRF   1900      45                N/A     5/ 7
OREGON INLET NC  1842   47 49   10/  6/  9 1022.2F
HATTERAS NC      1842   50 58   50/ 11/ 15 1021.2F
DIAMOND SHLS NC  1850   63 70  110/ 14/ 19 1021.3F   6/ 8   3/ 8
CAPE LOOKOUT NC  1900           40/ 17/ 18 1021.1F
$$




USA.gov is the U.S. government's official web portal to all federal, state and local government web resources and services.